TimeCDT,TemperatureF,Dew PointF,Humidity,Sea Level PressureIn,VisibilityMPH,Wind Direction,Wind SpeedMPH,Gust SpeedMPH,PrecipitationIn,Events,Conditions,WindDirDegrees,DateUTC
12:56 AM,37.0,32.0,82,29.85,10.0,South,3.5,-,N/A,,Scattered Clouds,190,2013-10-19 05:56:00
1:56 AM,37.9,32.0,79,29.83,10.0,SW,3.5,-,N/A,,Overcast,220,2013-10-19 06:56:00
2:56 AM,39.0,33.1,79,29.81,10.0,SSW,6.9,-,N/A,,Overcast,200,2013-10-19 07:56:00
3:56 AM,39.0,32.0,76,29.80,10.0,SW,5.8,-,N/A,,Overcast,230,2013-10-19 08:56:00
4:56 AM,39.9,33.1,77,29.78,10.0,WSW,4.6,-,0.00,,Overcast,240,2013-10-19 09:56:00
5:56 AM,37.9,34.0,86,29.77,10.0,SW,5.8,-,0.00,,Partly Cloudy,220,2013-10-19 10:56:00
6:56 AM,36.0,34.0,93,29.76,10.0,SSW,4.6,-,N/A,,Clear,210,2013-10-19 11:56:00
7:56 AM,36.0,34.0,93,29.76,10.0,SSW,4.6,-,N/A,,Scattered Clouds,210,2013-10-19 12:56:00
8:56 AM,39.0,35.1,86,29.75,10.0,SSW,6.9,-,N/A,,Clear,200,2013-10-19 13:56:00
9:56 AM,42.1,36.0,79,29.75,10.0,SW,9.2,-,N/A,,Scattered Clouds,220,2013-10-19 14:56:00
10:56 AM,45.0,36.0,71,29.73,10.0,WSW,8.1,-,N/A,,Overcast,250,2013-10-19 15:56:00
11:19 AM,44.6,35.6,71,29.71,10.0,WSW,11.5,-,N/A,,Overcast,250,2013-10-19 16:19:00
11:28 AM,42.8,35.6,76,29.71,10.0,SW,9.2,18.4,0.00,Rain,Light Rain,230,2013-10-19 16:28:00
11:56 AM,42.1,36.0,79,29.73,10.0,West,9.2,-,0.00,Rain,Light Rain,260,2013-10-19 16:56:00
12:56 PM,42.1,37.9,85,29.72,10.0,SW,9.2,-,0.01,,Overcast,220,2013-10-19 17:56:00
1:09 PM,42.8,39.2,87,29.69,10.0,SW,8.1,-,0.00,Rain,Light Rain,230,2013-10-19 18:09:00
1:33 PM,42.8,37.4,81,29.69,10.0,WSW,11.5,-,0.00,,Overcast,250,2013-10-19 18:33:00
1:56 PM,44.1,37.0,76,29.70,10.0,WSW,12.7,18.4,0.00,,Overcast,250,2013-10-19 18:56:00
2:24 PM,44.6,35.6,71,29.69,10.0,WSW,11.5,19.6,N/A,,Overcast,250,2013-10-19 19:24:00
2:56 PM,45.0,37.0,74,29.70,10.0,WSW,10.4,-,N/A,,Overcast,240,2013-10-19 19:56:00
3:56 PM,45.0,36.0,71,29.71,10.0,WSW,8.1,-,N/A,,Overcast,250,2013-10-19 20:56:00
4:56 PM,44.1,36.0,73,29.72,10.0,West,6.9,-,N/A,,Scattered Clouds,260,2013-10-19 21:56:00
5:56 PM,44.1,35.1,71,29.74,10.0,NW,6.9,-,N/A,,Overcast,310,2013-10-19 22:56:00
6:56 PM,39.9,35.1,83,29.76,10.0,Calm,Calm,-,N/A,,Mostly Cloudy,0,2013-10-19 23:56:00
7:56 PM,36.0,33.1,89,29.78,10.0,Calm,Calm,-,N/A,,Partly Cloudy,0,2013-10-20 00:56:00
8:56 PM,34.0,33.1,96,29.79,10.0,SW,3.5,-,N/A,,Clear,230,2013-10-20 01:56:00
9:56 PM,35.1,34.0,96,29.80,10.0,WSW,4.6,-,N/A,,Clear,240,2013-10-20 02:56:00
10:56 PM,35.1,34.0,96,29.80,10.0,WSW,4.6,-,N/A,,Clear,240,2013-10-20 03:56:00
11:56 PM,35.1,33.1,92,29.80,10.0,Calm,Calm,-,N/A,,Clear,0,2013-10-20 04:56:00